#timestamp,LO_Frequency,Hit,StdDev 
1522209615.3,286046997.4,N
1522209635.1,286046995.1,Y
1522209655.9,286046999.2,P
1522209675.7,286046996.9,P
1522209695.5,286046997.0,P
1522209715.4,286046996.5,Y
1522209735.2,286047002.7,P
1522209755.1,286047000.0,N
1522209756.0,286047000.0,N
1522209775.8,286047000.1,N
1522209795.6,286047000.7,N
1522209815.5,286047000.3,N
1522209835.3,286047000.0,N
1522209855.2,286047000.8,N
1522209875.9,286046999.1,N
1522209895.7,286046998.7,N
1522209915.6,286046998.7,N
1522209935.4,286046998.3,N
1522209955.2,286047000.8,N
1522209975.1,286047000.8,N
1522209976.0,286047000.8,N
1522209995.8,286046998.4,N
1522210015.7,286047001.2,N
1522210035.5,286047001.2,N
1522210055.3,286046998.4,N
1522210075.2,286046996.5,N
1522210095.0,286046998.4,N
1522210095.9,286046998.4,N
1522210115.7,286047001.2,N
1522210135.6,286047001.2,N
1522210155.4,286047000.6,N
1522210175.3,286047000.0,N
1522210195.1,286046998.7,N
1522210196.0,286046998.7,N
1522210215.8,286046998.3,N
1522210235.7,286046998.7,N
1522210255.5,286046996.7,N
1522210275.4,286046995.8,Y
1522210295.2,286046995.9,P
1522210315.0,286046995.8,N
1522210315.9,286046995.8,N
1522210335.8,286046994.4,Y
1522210355.6,286046997.1,P
1522210375.4,286046999.2,P
1522210395.3,286046999.0,N
1522210415.1,286046997.1,N
1522210435.9,286046997.8,N
1522210455.7,286046999.1,N
1522210475.5,286046998.5,N
1522210495.4,286047000.7,N
1522210515.2,286046998.2,N
1522210535.0,286046998.9,N
1522210535.9,286046998.9,N
1522210555.8,286046999.2,N
1522210575.6,286046996.9,N
1522210595.5,286046997.4,N
1522210615.3,286046999.4,N
1522210635.1,286046999.0,N
1522210655.9,286046999.5,N
1522210675.7,286046998.1,N
1522210695.5,286047000.7,N
1522210715.4,286046998.2,N
1522210735.2,286047001.1,N
1522210755.1,286046998.8,N
1522210756.0,286046998.8,N
1522210775.8,286046996.8,N
1522210795.6,286046997.8,N
1522210815.5,286046999.6,N
1522210835.3,286046998.3,N
1522210855.1,286046999.3,N
1522210875.9,286046996.6,Y
1522210895.7,286046999.1,P
1522210915.6,286046998.8,P
1522210935.4,286047011.9,P
1522210955.2,286047000.3,N
1522210975.1,286047000.9,N
1522210976.0,286047000.9,N
1522210995.8,286047002.6,N
1522211015.7,286047002.7,N
1522211035.5,286047001.6,N
1522211055.3,286047002.7,N
1522211075.2,286047002.8,N
1522211095.0,286047002.7,N
1522211095.9,286047002.7,N
1522211115.8,286047002.4,N
1522211135.6,286047001.8,N
1522211155.4,286047002.3,N
1522211175.3,286047001.9,N
1522211195.1,286047000.6,N
1522211215.8,286047000.3,N
1522211235.7,286047000.2,N
1522211255.5,286047001.0,N
1522211275.4,286047001.0,N
1522211295.2,286046998.1,N
1522211315.0,286046998.5,N
1522211315.9,286046998.5,N
1522211335.8,286046998.4,N
1522211355.6,286047001.2,N
1522211375.4,286047000.8,N
1522211395.3,286047000.7,N
1522211415.1,286047002.5,N
1522211435.9,286047002.0,N
1522211455.7,286047001.9,N
1522211475.5,286047001.7,N
1522211495.4,286047002.3,N
1522211515.2,286047002.8,N
1522211535.0,286047000.3,N
1522211535.9,286047000.3,N
1522211555.8,286047002.3,N
1522211575.6,286046999.9,N
1522211595.5,286047002.2,N
1522211615.3,286047001.4,N
1522211635.1,286047003.5,N
1522211655.9,286047004.3,Y
1522211675.7,286047002.3,P
1522211695.6,286047000.2,N
1522211715.4,286047002.3,N
1522211735.2,286047001.3,N
1522211755.1,286047002.2,N
1522211756.0,286047002.2,N
1522211775.8,286047002.9,Y
1522211795.6,286047004.2,P
1522211815.5,286047004.3,P
1522211835.3,286047002.2,N
1522211855.2,286047002.5,N
1522211875.9,286047001.5,N
1522211895.7,286047000.1,N
1522211915.6,286046998.3,N
1522211935.4,286046999.1,N
1522211955.2,286046998.7,N
1522211975.1,286047000.3,N
1522211976.0,286047000.3,N
1522211995.8,286047001.0,N
1522212015.7,286047000.9,N
1522212035.5,286046999.9,N
1522212055.3,286047002.8,N
1522212075.2,286047002.3,N
1522212095.0,286047002.8,N
1522212095.9,286047002.8,N
1522212115.7,286047000.3,N
1522212135.6,286047000.0,N
1522212155.4,286046998.5,N
1522212175.3,286046998.2,N
1522212195.1,286046998.6,N
1522212196.0,286046998.6,N
1522212215.8,286046999.8,N
1522212235.7,286047002.2,N
1522212255.5,286047001.9,N
1522212275.4,286047002.1,N
1522212295.2,286047002.7,N
1522212315.0,286047000.1,N
1522212315.9,286047000.1,N
1522212335.8,286047002.3,N
1522212355.6,286047001.5,N
1522212375.4,286047002.2,N
1522212395.3,286046999.8,N
1522212415.1,286047000.6,N
1522212435.9,286047000.0,N
1522212455.7,286046999.8,N
1522212475.5,286046999.7,N
1522212495.4,286047000.3,N
1522212515.2,286047002.0,N
1522212535.0,286046999.8,N
1522212535.9,286046999.8,N
1522212555.8,286047001.8,N
1522212575.6,286047005.6,Y
1522212595.5,286047005.1,P
1522212615.3,286047003.0,N
1522212635.1,286047003.2,N
1522212655.9,286047003.2,N
1522212675.7,286047001.7,N
1522212695.6,286047004.1,Y
1522212715.4,286047001.8,P
1522212735.2,286047001.5,N
1522212755.1,286046998.6,N
1522212756.0,286046998.6,N
1522212775.8,286046998.3,N
1522212795.7,286046998.5,N
1522212815.5,286046998.7,N
1522212835.3,286046999.2,N
1522212855.2,286046997.4,N
1522212875.9,286046997.5,N
1522212895.7,286046996.5,N
1522212945.6,286046999.6,E
1522212955.5,286046999.5,N
1522212975.4,286046997.2,P
1522212995.2,286046998.0,N
1522213015.0,286046997.4,N
1522213015.9,286046997.4,N
1522213035.8,286046998.3,N
1522213055.6,286047000.6,N
1522213075.5,286047002.4,N
1522213095.3,286046998.1,N
1522213115.1,286046998.3,N
1522213135.9,286047000.7,N
1522213155.7,286047001.1,N
1522213175.5,286046999.7,N
1522213195.4,286046999.8,N
